Hourly Weather Roundup
Issued by NWS Central Illinois

Home | Current Version | Previous Version | Text Only | Print | Product List | Glossary On
Versions: 1 2 3 4 5 6 7 8 9 10 11 12 13 14 15 16 17 18 19 20 21 22 23 24 25 26 27 28 29 30 31 32 33 34 35 36 37 38 39 40 41 42 43 44 45 46 47 48 49 50
000
NZUS43 KILX 020710
HWRILX

AREA WEATHER ROUNDUP
NATIONAL WEATHER SERVICE, LINCOLN IL
200 AM CDT TUE JUN 02 2015


CITY           SKY/WX    TMP DP  RH WIND       PRES   REMARKS
BLOOMINGTON    CLOUDY    51  47  86 E8        30.17S
CHAMPAIGN      PTCLDY    56  52  86 E7        30.15F
DANVILLE       CLEAR     53  51  93 CALM      30.13F
DECATUR        CLEAR     53  52  96 NE7       30.14S
EFFINGHAM      CLEAR     54  52  92 CALM      30.14S FOG
FLORA          MOCLDY    58  53  83 E6        30.12F
GALESBURG      MOCLDY    55  52  92 E3        30.16R
JACKSONVILLE   CLEAR     55  52  92 E7        30.13S
LACON          CLEAR     49  41  75 CALM      30.16S
LAWRENCEVILLE  CLOUDY    58  52  80 E7        30.13S
LITCHFIELD     CLEAR     56  55  93 CALM      30.13R
$$


CITY           SKY/WX    TMP DP  RH WIND       PRES   REMARKS
LINCOLN        PTCLDY    54  51  90 CALM      30.14S
MACOMB         CLEAR     51  51  99 E3        30.16S
MATTOON        CLEAR     52  50  93 NE5       30.12F
MT CARMEL AP   CLOUDY    61  52  72 E10       30.12S
OLNEY-NOBLE AP CLOUDY    57  52  82 E8        30.12F
PARIS          CLEAR     53  51  92 NE5       30.15S
PEORIA         CLEAR     54  45  71 E9        30.16S
PONTIAC        CLOUDY    51  44  79 E5        30.18S
RANTOUL        CLOUDY    56  49  79 NE5       30.16S
ROBINSON       CLOUDY    58  52  80 E7        30.14S
SPRINGFIELD    CLEAR     54  51  90 NE7       30.14S
TAYLORVILLE    CLEAR     54  54 100 E3        30.13S
$$

...REGIONAL REPORTS...


CITY           SKY/WX    TMP DP  RH WIND       PRES   REMARKS
CHICAGO O`HARE CLEAR     45  37  73 N3        30.17F
KANKAKEE       CLEAR     45  41  88 E3        30.17S
MOLINE         CLEAR     52  47  83 E7        30.16R
MOUNT VERNON   CLOUDY    59  52  77 NE3       30.12S
PITTSFIELD     CLEAR     56  53  90 CALM      30.14S
QUINCY         CLEAR     56  53  90 E5        30.13S
ROCKFORD       PTCLDY    48  36  63 CALM      30.21S
$$


CITY           SKY/WX    TMP DP  RH WIND       PRES   REMARKS
BURLINGTON     CLEAR     56  54  93 CALM      30.14R
CEDAR RAPIDS   PTCLDY    53  47  79 E8        30.14R
DES MOINES     PTCLDY    57  52  83 S5        30.13S
KIRKSVILLE     CLEAR     51  51 100 CALM      30.14S FOG
OTTUMWA        CLEAR     53  52  96 CALM      30.13S FOG
ST LOUIS       MOCLDY    63  56  78 CALM      30.12S
$$


CITY           SKY/WX    TMP DP  RH WIND       PRES   REMARKS
TERRE HAUTE    CLOUDY    56  51  84 NE8       30.13F
EVANSVILLE     CLOUDY    59  55  87 NE5       30.11F
INDIANAPOLIS   PTCLDY    53  46  77 NE8       30.13F
LAFAYETTE      CLEAR     49  48  97 E3        30.15F
MADISON        CLEAR     46  34  62 CALM      30.19S
MILWAUKEE      PTCLDY    44  33  65 CALM      30.19F
$$




USA.gov is the U.S. government's official web portal to all federal, state and local government web resources and services.